星链-34859 (STARLINK-34859)

导读

STARLINK-34859是美国于2025年8月27日发射的星链卫星,隶属于SpaceX的星链互联网星座项目。星链计划旨在构建全球卫星互联网,为全球偏远地区、海洋等通信薄弱区域提供低成本高速网络服务,该卫星的发射是星链星座扩容、完善全球覆盖能力的一步,持续推进星座组网进程。

基本信息
目录编号:
65348
目录名称:
STARLINK-34859
国际标识:
2025-189AB
轨道中心:
EARTH
卫星名称:
星链-34859
卫星全名:
星链-34859 (STARLINK-34859)
卫星状态:
在轨 (已飞行290 天)
发射日期:
2025-08-27 UTC
国别 :
美国 (US)
星等 :
--
轨道信息
数据来源 国际轨道数据
星历时间: 2026-06-13T12:11:21+0800
13小时前
查看轨道信息
半长轴: 6853.244km
偏心率: 0.0001155
轨道倾角: 53.157°
近地点辐角 99.439°
升交点赤经 123.389°
平近点角 260.675°
近地点: 474.315km
远地点: 475.899km
周期: 94.103分钟
每日圈数: 15.302364
详细信息
固有亮度:
5
最大亮度:
2.5
卫星平台:
Starlink V1.0
覆盖范围:
全球
运营商:
太空探索技术公司
运营商所在国:
美国
制造商(研发单位):
太空探索技术公司
制造商所在国:
美国
使用方式:
暂无
卫星简介
Starlink 计划是 SpaceX 推出的全球卫星互联网项目,通过发射低轨道卫星,为全球尤其是偏远地区提供高速、低延迟的互联网服务。自 2019 年起,Starlink 已部署数千颗卫星,旨在缩小全球数字鸿沟,推动互联网普及。该项目还为军事、航空等行业提供通信支持,带来广泛经济效益。
2D轨道图
3D轨道图
轨道高度分析图
轨道倾角分析图
轨道综合分析图
查看轨道综合分析图